| time (UTC) | temp F | wind direction | speed knots | gust knots | rain 1hr in | rain 24hr in | rain mn in | humidity % | barometer mb |
| 20260504081551 | 49 | 40 | 7.0 | 15.6 | 0.00 | 0.00 | 0.00 | 51 | 1015.1 |
| 20260504044536 | 57 | 42 | 2.6 | 7.0 | 0.00 | 0.00 | 0.00 | 36 | 1009.6 |
| 20260504043049 | 58 | 52 | 2.6 | 7.0 | 0.00 | 0.00 | 0.00 | 36 | 1009.1 |
| 20260504041540 | 58 | 37 | 3.5 | 7.8 | 0.00 | 0.00 | 0.00 | 35 | 1008.6 |
| 20260504040045 | 59 | 34 | 4.3 | 9.6 | 0.00 | 0.00 | 0.00 | 33 | 1008.5 |
| 20260504034541 | 60 | 45 | 4.3 | 9.6 | 0.00 | 0.00 | 0.00 | 33 | 1008.3 |
| 20260504033039 | 61 | 40 | 3.5 | 12.2 | 0.00 | 0.00 | 0.00 | 33 | 1007.9 |
| 20260504031546 | 61 | 54 | 3.5 | 9.6 | 0.00 | 0.00 | 0.00 | 30 | 1007.4 |
| 20260504030040 | 62 | 58 | 0.9 | 4.3 | 0.00 | 0.00 | 0.00 | 27 | 1007.2 |
| 20260504024544 | 63 | 37 | 3.5 | 7.0 | 0.00 | 0.00 | 0.00 | 23 | 1007.1 |
| 20260504023038 | 65 | 22 | 0.0 | 1.7 | 0.00 | 0.00 | 0.00 | 21 | 1006.9 |
| 20260504021544 | 67 | 28 | 0.9 | 4.3 | 0.00 | 0.00 | 0.00 | 19 | 1007.0 |
| 20260504020045 | 69 | 30 | 1.7 | 8.7 | 0.00 | 0.00 | 0.00 | 19 | 1007.0 |
| 20260504014545 | 71 | 0 | 0.9 | 3.5 | 0.00 | 0.00 | 0.00 | 18 | 1006.9 |
| 20260504013040 | 73 | 22 | 2.6 | 7.0 | 0.00 | 0.00 | 0.00 | 17 | 1006.9 |
| 20260504011538 | 74 | 344 | 6.1 | 12.2 | 0.00 | 0.00 | 0.00 | 17 | 1007.0 |
| 20260504010037 | 74 | 27 | 2.6 | 11.3 | 0.00 | 0.00 | 0.00 | 17 | 1007.0 |
| 20260504004544 | 75 | 336 | 7.0 | 15.6 | 0.00 | 0.00 | 0.00 | 16 | 1007.0 |
| 20260504003051 | 75 | 311 | 12.2 | 18.2 | 0.00 | 0.00 | 0.00 | 16 | 1007.2 |
| 20260504001545 | 75 | 345 | 7.8 | 16.5 | 0.00 | 0.00 | 0.00 | 15 | 1007.4 |
| 20260504000111 | 75 | 349 | 10.4 | 16.5 | 0.00 | 0.00 | 0.00 | 15 | 1007.4 |
| 20260503234550 | 75 | 315 | 8.7 | 14.8 | 0.00 | 0.00 | 0.00 | 15 | 1007.4 |
| 20260503233044 | 75 | 335 | 8.7 | 17.4 | 0.00 | 0.00 | 0.00 | 16 | 1007.5 |
| 20260503231537 | 74 | 303 | 7.0 | 14.8 | 0.00 | 0.00 | 0.00 | 16 | 1007.8 |
| 20260503230037 | 74 | 309 | 13.9 | 25.2 | 0.00 | 0.00 | 0.00 | 16 | 1007.9 |
| 20260503224544 | 74 | 274 | 9.6 | 23.5 | 0.00 | 0.00 | 0.00 | 16 | 1008.2 |
| 20260503223041 | 74 | 293 | 9.6 | 21.7 | 0.00 | 0.00 | 0.00 | 16 | 1008.3 |
| 20260503221549 | 74 | 336 | 10.4 | 20.9 | 0.00 | 0.00 | 0.00 | 17 | 1008.5 |
| 20260503220038 | 74 | 293 | 8.7 | 19.1 | 0.00 | 0.00 | 0.00 | 17 | 1008.6 |
| 20260503214542 | 73 | 266 | 16.5 | 26.1 | 0.00 | 0.00 | 0.00 | 16 | 1008.7 |
| 20260503213045 | 72 | 304 | 13.0 | 23.5 | 0.00 | 0.00 | 0.00 | 16 | 1009.1 |
| 20260503211544 | 73 | 271 | 12.2 | 20.9 | 0.00 | 0.00 | 0.00 | 15 | 1009.2 |
| 20260503210039 | 72 | 289 | 9.6 | 21.7 | 0.00 | 0.00 | 0.00 | 17 | 1009.4 |
| 20260503204538 | 72 | 302 | 10.4 | 21.7 | 0.00 | 0.00 | 0.00 | 17 | 1009.7 |
| 20260503203056 | 71 | 322 | 10.4 | 24.3 | 0.00 | 0.00 | 0.00 | 17 | 1009.9 |
| 20260503201539 | 71 | 323 | 11.3 | 20.0 | 0.00 | 0.00 | 0.00 | 18 | 1010.0 |
| 20260503200037 | 71 | 284 | 14.8 | 28.7 | 0.00 | 0.00 | 0.00 | 18 | 1010.2 |
| 20260503194550 | 70 | 269 | 7.8 | 26.9 | 0.00 | 0.00 | 0.00 | 18 | 1010.4 |
| 20260503193041 | 71 | 315 | 13.9 | 23.5 | 0.00 | 0.00 | 0.00 | 17 | 1010.6 |
| 20260503191541 | 71 | 307 | 13.0 | 21.7 | 0.00 | 0.00 | 0.00 | 18 | 1010.9 |
| 20260503190040 | 70 | 238 | 9.6 | 26.1 | 0.00 | 0.00 | 0.00 | 18 | 1011.0 |
| 20260503184537 | 70 | 276 | 13.0 | 24.3 | 0.00 | 0.00 | 0.00 | 18 | 1011.1 |
| 20260503183037 | 70 | 241 | 9.6 | 17.4 | 0.00 | 0.00 | 0.00 | 19 | 1011.3 |
| 20260503181556 | 69 | 248 | 9.6 | 20.0 | 0.00 | 0.00 | 0.00 | 21 | 1011.5 |
| 20260503180043 | 69 | 303 | 8.7 | 15.6 | 0.00 | 0.00 | 0.00 | 23 | 1011.8 |
| 20260503174540 | 68 | 282 | 12.2 | 16.5 | 0.00 | 0.00 | 0.00 | 24 | 1012.0 |
| 20260503173051 | 67 | 324 | 9.6 | 13.9 | 0.00 | 0.00 | 0.00 | 26 | 1012.2 |
| 20260503171540 | 65 | 280 | 6.1 | 13.9 | 0.00 | 0.00 | 0.00 | 33 | 1012.2 |